Location: Maynard F. Jordan Observatory
(44.9000°N, 68.6700°W)
Time: 05:24:49
(UTC-04:00)

Daily predictions for brighter satellites

Satellite Brightness Start Highest point End
(mag) Time Altitude Azimuth Time Altitude Azimuth Time Altitude Azimuth
Cosmos 2251 Rocket 3.8 00:05:09 10° NNW 00:10:28 62° ENE 00:12:20 39° SE
GEOS 3 Rocket 3.8 00:11:06 45° SSW 00:12:15 54° WSW 00:17:21 10° NW
ATLAS 3B R/B 2.8 00:06:55 10° NW 00:13:47 60° WSW 00:16:07 40° S
Cosmos 2297 Rocket 2.9 00:10:25 21° SW 00:14:04 50° WNW 00:19:36 10° NNE
USA 238 DEB 3.8 00:11:11 10° NW 00:18:15 79° NE 00:22:17 28° SE
USA 238 3.8 00:11:17 10° NW 00:18:22 78° NE 00:22:25 28° SE
Geosat 4.2 00:13:39 10° NE 00:18:37 55° ESE 00:19:31 48° SSE
Lacrosse 4 Rocket 1.9 00:15:04 10° NW 00:19:20 49° WSW 00:19:35 48° SW
Cosmos 2219 Rocket 4.2 00:18:04 10° WNW 00:20:41 14° W 00:22:26 12° WSW
Meteor 2-10 Rocket 3.7 00:16:17 10° N 00:21:51 78° E 00:23:43 44° SSE
CZ-2C R/B 3.2 00:17:18 10° NNE 00:22:17 42° E 00:23:25 37° SE
Cosmos 1943 4.5 00:17:28 10° NNW 00:22:41 35° NE 00:26:36 16° ESE
Cosmos 1733 Rocket 3.1 00:25:20 58° SE 00:25:55 65° E 00:30:21 10° NNE
Cosmos 389 Rocket 3.7 00:23:54 10° NNW 00:26:58 33° W 00:26:58 33° W
ALOS 2 3.0 00:27:29 46° SW 00:28:02 48° W 00:32:18 10° NNW
NOSS 2-3 (E) 3.9 00:27:22 46° SSW 00:28:57 87° ESE 00:34:46 10° NE
Cosmos 1356 Rocket 3.7 00:29:38 49° ESE 00:29:46 49° E 00:33:42 10° NNE
Cosmos 1603 3.7 00:25:51 10° NNW 00:31:35 86° ENE 00:33:35 43° SSE
Landsat 5 3.8 00:33:06 52° SW 00:33:42 57° W 00:38:12 10° NNW
Cosmos 1378 Rocket 4.5 00:33:35 10° N 00:37:43 38° ENE 00:38:46 33° ESE
Coronas F rocket 3.1 00:40:07 31° NNE 00:40:07 31° NNE 00:41:44 10° NNE
H-2A R/B 3.2 00:35:11 10° N 00:39:11 46° WNW 00:40:11 38° WSW
Cosmos 1606 3.5 00:35:34 10° N 00:39:12 40° ENE 00:39:39 38° E
Cosmos 1689 Rocket 3.7 00:42:10 30° WNW 00:42:10 30° WNW 00:44:38 10° NNW
Cosmos 44 Rocket 3.4 00:40:52 46° SW 00:42:29 86° NW 00:47:46 10° NE
CZ-4B R/B 2.8 00:44:09 30° W 00:44:09 30° W 00:46:51 10° NNW
COSMOS 2455 3.7 00:39:28 10° NW 00:44:43 32° WSW 00:45:49 30° SW
USA 234 4.0 00:39:39 10° ESE 00:45:58 54° NNE 00:52:18 10° NW
MOS 1-B Rocket 3.8 00:44:31 44° S 00:46:29 83° WSW 00:52:07 10° NNW
Nadezhda 3 Rocket 3.9 00:42:02 10° N 00:48:17 89° E 00:50:38 41° S
Cosmos 494 Rocket 3.9 00:43:06 10° NNW 00:48:24 89° ENE 00:49:55 48° SSE
Cosmos 2237 Rocket 4.3 00:47:05 10° WNW 00:49:12 12° W 00:50:31 11° WSW
Meteor 2-3 Rocket 4.4 00:49:35 31° SW 00:51:57 48° WNW 00:57:30 10° N
BREEZE-M TANK 2.5 00:44:57 10° W 00:52:25 84° N 00:55:13 10° E
Meteor 1-10 Rocket 4.3 00:46:33 10° NNW 00:52:29 74° W 00:54:27 44° S
Okean 2 Rocket 4.3 00:53:23 27° ESE 00:54:22 30° E 00:58:18 10° NNE
SeaSat 1 4.3 00:55:21 16° WSW 00:55:34 16° WSW 00:58:33 10° WNW
NOSS 2-3 (C) 4.4 00:53:46 30° WSW 00:56:13 63° NW 01:02:05 10° NE
Cosmos 1892 3.3 00:58:06 44° W 00:58:20 45° WNW 01:02:01 10° N
Cosmos 1782 Rocket 4.3 01:00:23 37° ESE 01:01:09 41° E 01:05:16 10° NNE
Aureole 2 Rocket 4.2 01:01:21 10° NW 01:02:52 20° WNW 01:02:52 20° WNW
Helios 1A Rocket 3.7 01:02:07 10° N 01:06:05 43° WNW 01:06:57 38° WSW
CZ-4C R/B 2.9 00:59:05 10° NW 01:06:07 82° NE 01:12:08 18° SE
Cosmos 1674 Rocket 4.1 01:08:36 10° NNW 01:12:48 44° W 01:13:19 42° WSW
NOSS 3-4 (A) 4.0 01:14:01 36° SSE 01:16:03 47° ESE 01:22:17 10° NE
NOSS 3-4 (C) 4.0 01:14:08 36° SSE 01:16:09 46° ESE 01:22:22 10° NE
NOSS 3-2 (A) 4.0 01:08:52 10° NW 01:16:20 82° NE 01:23:28 14° SE
Cosmos 2154 Rocket 4.2 01:14:44 36° SW 01:17:18 62° W 01:23:34 10° N
Cosmos 1782 3.6 01:15:12 10° NNW 01:18:54 38° W 01:18:58 38° W
Cosmos 1607 3.9 01:12:58 10° NW 01:19:03 66° WSW 01:21:19 39° S
Cosmos 1238 Rocket 2.8 01:17:41 10° NNW 01:21:50 57° W 01:21:56 57° W
Cosmos 1975 Rocket 3.1 01:17:47 10° N 01:22:12 76° E 01:23:11 52° SSE
BREEZE-M DEB (TANK) 4.2 01:10:29 10° WNW 01:24:56 70° SSW 01:28:28 17° SE
Cosmos 1825 2.0 01:26:16 75° SSE 01:26:32 84° E 01:30:22 10° N
Cosmos 921 Rocket 3.2 01:26:24 49° WSW 01:27:09 59° WNW 01:31:20 10° N
Cosmos 1340 Rocket 4.3 01:26:58 23° W 01:27:43 24° WNW 01:30:58 10° NNW
Cosmos 1408 2.5 01:27:35 76° S 01:27:51 86° E 01:31:39 10° N
PSLV R/B 4.4 01:24:56 10° NNE 01:28:53 38° E 01:29:50 33° SE
Cosmos 1908 Rocket 3.8 01:29:40 48° WSW 01:30:28 56° W 01:34:46 10° N
Cosmos 1295 Rocket 4.5 01:29:00 38° SSW 01:31:38 83° W 01:38:01 10° N
PSLV R/B 4.0 01:32:17 55° SW 01:32:38 57° WSW 01:36:40 10° NNW
Cosmos 2084 Rocket 3.9 01:33:17 36° W 01:34:19 46° NW 01:38:00 10° NNE
Cosmos 2263 Rocket 2.4 01:35:36 38° S 01:37:37 61° ESE 01:43:14 10° NNE
RESURS DK-1 3.4 01:37:30 31° SE 01:38:06 32° ESE 01:41:50 10° NE
COSMOS 2406 4.4 01:39:55 10° NNW 01:45:23 41° NE 01:50:47 10° SE
CZ-2C R/B 3.8 01:46:35 34° SW 01:48:22 44° W 01:53:46 10° NNW
Meteor 1-27 Rocket 4.4 01:43:42 10° NNW 01:49:11 42° W 01:51:04 32° SW
ATLAS 2A CENTAUR R/B 4.4 01:49:05 18° SSE 01:49:25 18° SSE 01:57:58 10° ESE
Cosmos 2151 Rocket 4.0 01:51:17 36° SSE 01:52:48 54° E 01:57:10 10° NNE
SL-08 R/B 4.4 01:50:53 35° SSW 01:53:44 83° W 02:00:05 10° N
Cosmos 44 4.0 01:51:01 27° WSW 01:53:46 54° NW 01:59:09 10° NNE
Meteor 1-14 Rocket 4.4 01:56:09 32° S 01:59:02 76° E 02:04:57 10° NNE
SL-27 R/B 4.5 01:58:56 10° N 02:02:08 28° ENE 02:05:19 10° ESE
CZ-2C R/B 4.0 01:57:59 10° N 02:02:22 27° WNW 02:04:56 19° WSW
Cosmos 1862 4.5 02:02:07 28° W 02:02:56 30° WNW 02:06:31 10° NNW
Cosmos 1943 3.8 02:01:31 10° NW 02:06:46 40° WSW 02:08:22 33° SW
Elektron 3 4.3 02:04:10 10° NW 02:07:09 75° NE 02:11:56 10° SE
Cosmos 1867 3.5 02:02:36 10° NW 02:08:04 67° WSW 02:11:13 25° SSE
SL-8 Rocket 4.4 02:05:15 30° SW 02:08:15 53° WNW 02:14:28 10° N
Cosmos 2218 Rocket 4.3 02:10:59 30° SW 02:14:04 58° WNW 02:20:20 10° N
Cosmos 1339 Rocket 4.4 02:08:07 10° N 02:14:14 80° W 02:17:45 27° S
Resurs 1-4 Rocket 4.4 02:11:53 10° NE 02:15:18 17° E 02:18:40 10° SE
JB-3 4.2 02:14:28 10° N 02:18:19 73° WNW 02:19:27 43° SSW
GP-B 3.9 02:14:28 10° NNE 02:18:48 47° E 02:21:28 21° SSE
Cosmos 1242 Rocket 2.5 02:15:48 10° NNW 02:19:17 63° W 02:19:51 52° SW
Cosmos 1624 Rocket 4.0 02:17:18 33° SSW 02:19:42 84° ESE 02:24:58 10° NNE
Landsat 4 3.8 02:20:18 45° SSW 02:21:09 58° WSW 02:24:55 10° NNW
Meteor 1-18 Rocket 4.2 02:19:21 10° NNW 02:25:02 86° W 02:28:50 22° S
Iridium 4 Rocket 3.3 02:22:42 10° N 02:27:15 65° W 02:29:33 31° SSW
USA 234 3.3 02:22:33 10° SSE 02:28:57 58° SW 02:35:24 10° NW
Abrixas rocket 2.4 02:29:26 49° S 02:29:49 52° SSE 02:33:06 10° ENE
Meteor 2-19 Rocket 4.5 02:26:46 27° SSW 02:30:15 74° W 02:36:28 10° N
Cosmos 2366 rocket 4.4 02:27:26 26° SW 02:30:38 49° WNW 02:36:39 10° N
Gbstr 26 Del rocket 4.4 02:30:06 19° SSE 02:30:43 19° SE 02:33:29 10° E
Okean 2 Rocket 4.5 02:30:45 22° WSW 02:32:25 27° WNW 02:36:17 10° NNW
SL-24 DEB 4.2 02:30:36 10° N 02:35:15 87° E 02:37:51 26° S
Cosmos 1184 Rocket 3.9 02:34:38 28° W 02:35:17 31° WNW 02:38:21 10° N
ARIANE 5 R/B 3.8 02:34:23 10° NNE 02:38:55 34° E 02:43:06 12° SSE
ADEOS 4.0 02:33:55 10° NNE 02:39:06 58° E 02:42:42 20° S
Cosmos 1452 Rocket 4.0 02:37:48 21° S 02:41:08 52° ESE 02:46:14 10° NNE
CENTAUR R/B 3.3 02:33:51 10° NW 02:41:35 72° NE 02:49:51 10° SE
NOSS 3-2 (C) 4.4 02:35:46 10° NW 02:42:46 42° WSW 02:48:50 15° S
NPP 3.7 02:39:06 10° N 02:44:30 77° WNW 02:47:48 24° SSW
CBERS-1 4.0 02:42:18 10° NNE 02:47:28 84° WNW 02:50:41 24° SSW
IRAS Rocket 4.3 02:42:15 10° NNE 02:47:45 71° WNW 02:51:15 23° SSW
SL-08 R/B 3.6 02:47:35 24° S 02:50:27 55° W 02:55:17 10° NNW
Meteor 1-11 Rocket 4.5 02:47:51 13° SSE 02:53:04 53° E 02:58:52 10° NNE
CZ-4C R/B 3.9 02:48:32 10° WNW 02:54:14 25° WSW 02:57:14 20° SW
COSMOS 2487 4.4 02:51:29 10° N 02:54:47 32° ENE 02:58:04 10° SE
Meteor 1-20 Rocket 4.3 02:51:41 22° SSW 02:55:35 75° WNW 03:01:24 10° N
Meteor 1-13 Rocket 4.4 02:50:49 10° N 02:56:30 79° ENE 03:02:17 10° SSE
EO 1 Del DPAF 4.3 02:54:48 10° SE 02:58:32 46° ENE 03:02:17 10° N
Cosmos 1812 3.1 02:56:28 10° NNW 03:00:14 47° W 03:02:06 25° SSW
ERS-2 2.4 02:56:44 10° N 03:00:22 54° WNW 03:02:13 26° SW
Cosmos 1300 Rocket 3.6 03:02:44 23° SSW 03:05:17 62° W 03:09:38 10° N
USA 161 1.3 03:04:08 25° S 03:05:35 80° WSW 03:08:31 10° NNW
Okean 1 3.6 03:02:09 10° NNW 03:06:00 47° W 03:08:13 22° SSW
NOSS 3-4 (A) 4.5 03:01:27 12° WSW 03:07:03 42° NW 03:13:21 10° NNE
NOSS 3-4 (C) 4.4 03:01:33 12° WSW 03:07:08 43° NW 03:13:27 10° NNE
AQUA 4.2 03:02:41 10° N 03:07:20 53° WNW 03:10:25 20° SW
CZ-2D R/B 3.0 03:02:15 10° NNE 03:07:30 47° E 03:12:45 10° S
BREEZE-M DEB (TANK) 4.4 03:05:19 10° WNW 03:09:38 68° NNE 03:27:44 10° ESE
Cosmos 1400 Rocket 4.3 03:09:45 10° SSE 03:13:14 33° E 03:16:47 10° NNE
Cosmos 1140 Rocket 3.6 03:09:43 10° NNW 03:14:54 79° ENE 03:20:01 10° SSE
NOSS 2-2 (D) 4.5 03:12:20 16° S 03:15:18 40° ESE 03:19:45 10° NE
RESURS DK-1 3.9 03:13:25 14° WSW 03:16:12 26° NW 03:19:45 10° N
Cosmos 2056 Rocket 4.5 03:13:32 16° WSW 03:17:12 36° WNW 03:22:03 10° N
Cosmos 1892 Rocket 4.3 03:13:42 10° N 03:18:00 54° ENE 03:22:14 10° SSE
Cosmos 1844 Rocket 2.7 03:14:56 17° SSW 03:19:22 88° ESE 03:25:05 10° NNE
Cosmos 2263 Rocket 3.7 03:17:20 10° WSW 03:21:58 25° NW 03:26:38 10° N
Cosmos 1850 Rocket 4.3 03:16:51 10° NNW 03:22:06 71° ENE 03:27:21 10° SSE
Spot 4 Rocket 4.1 03:17:01 10° N 03:22:10 70° WNW 03:26:24 15° SSW
Cosmos 1741 Rocket 4.3 03:17:56 10° NNW 03:23:14 70° ENE 03:28:28 10° SSE
Cosmos 1844 3.9 03:19:01 15° SSW 03:23:49 72° ESE 03:29:34 10° NNE
Cosmos 407 Rocket 4.2 03:19:19 10° NW 03:23:55 33° WSW 03:27:41 14° SSW
Cosmos 1934 Rocket 4.0 03:18:43 14° SSW 03:24:10 73° W 03:30:20 10° N
COSMOS 2406 3.9 03:24:27 10° NW 03:29:36 34° WSW 03:34:42 10° SSW
NOSS 2-2 (C) 4.0 03:26:21 15° SSW 03:29:37 55° ESE 03:34:20 10° NE
Okean 1-7 Rocket 4.5 03:29:11 10° NNW 03:33:18 34° W 03:36:41 14° SSW
SL-27 R/B 4.0 03:34:28 10° NW 03:37:16 21° W 03:39:04 15° SW
Cosmos 2278 Rocket 2.5 03:32:47 10° S 03:38:21 64° ESE 03:43:59 10° NNE
Cosmos 1315 Rocket 4.1 03:34:48 10° SSE 03:38:37 39° E 03:42:24 10° NNE
SL-16 R/B 2.6 03:32:56 10° S 03:39:07 66° WSW 03:45:21 10° NNW
Okean 2 3.6 03:38:02 10° N 03:42:09 74° E 03:46:15 10° SSE
IRS-1D 3.5 03:37:42 10° N 03:42:49 71° WNW 03:47:47 10° SSW
ATLAS 5 CENTAUR R/B 2.7 03:38:02 10° NW 03:43:58 75° NE 03:50:20 10° SE
Okean 1 Rocket 4.3 03:41:18 13° SW 03:44:31 28° WNW 03:48:25 10° NNW
Okean O Rocket 2.7 03:42:17 10° NNE 03:46:26 42° E 03:50:34 10° S
Cosmos 1602 4.3 03:45:03 13° SW 03:48:13 41° WNW 03:51:54 10° N
CZ-2C R/B 4.2 03:47:27 10° SSE 03:52:10 70° ENE 03:56:56 10° N
CZ-4B R/B 4.3 03:47:27 10° NNE 03:52:54 45° E 03:58:18 10° S
CZ-2D R/B 3.7 03:49:11 10° NNE 03:53:10 66° ESE 03:57:10 10° S
UNK 3.5 03:46:40 11° SW 03:53:56 52° SSE 03:56:42 10° ENE
Cosmos 2082 Rocket 3.2 03:49:21 10° NNW 03:54:59 53° ENE 04:00:33 10° SE
NOSS 2-2 (E) 3.7 03:51:36 11° SW 03:55:37 81° NW 04:00:43 10° NE
Resurs 1-4 Rocket 2.2 03:50:20 10° N 03:55:38 68° WNW 04:00:53 10° SSW
Cosmos 1605 Rocket 4.2 03:50:04 10° SSW 03:56:08 59° WNW 04:02:20 10° N
Meteor 2-4 Rocket 3.7 03:51:24 10° NNW 03:56:46 62° W 04:02:01 10° S
Cosmos 2123 Rocket 4.5 03:51:28 10° NNW 03:57:24 44° W 04:03:18 10° SSW
BREEZE-M DEB (TANK) 3.4 03:52:14 10° WNW 03:58:03 41° N 04:00:30 10° ENE
IRS-1C Rocket 4.5 03:53:27 10° NNE 03:58:43 67° ESE 04:03:56 10° S
Cosmos 1461 3.3 03:57:18 10° SSW 04:02:02 78° ESE 04:06:39 10° NE
Cosmos 1536 3.5 04:01:03 10° SSW 04:04:52 39° WNW 04:08:43 10° N
Abrixas rocket 3.0 04:03:40 10° W 04:06:58 50° N 04:10:15 10° ENE
Cosmos 1626 Rocket 4.0 04:03:56 10° N 04:08:17 67° E 04:12:39 10° SSE
Cosmos 1455 Rocket 3.1 04:05:57 10° SSW 04:10:24 73° W 04:14:53 10° N
UNKNOWN OBJECT B 3.1 04:06:47 10° N 04:10:48 56° WNW 04:14:48 10° SSW
USA 129 2.0 04:09:10 10° S 04:11:13 44° WSW 04:13:16 10° NNW
Cosmos 1025 Rocket 4.2 04:10:19 10° NNW 04:13:50 25° W 04:17:21 10° SW
Cosmos 614 Rocket 4.3 04:11:04 10° NNW 04:16:01 47° WSW 04:20:54 10° S
